User: anonymous   Login
Location: Unspecified
(0.0000°N, 0.0000°E)
Time: 19:11:29
(UTC+01:00)
Language:

Cosmos 1125 Rocket - Orbit

View from above orbital plane
View from above orbital plane
View from above satellite
View from above satellite

Ground track
Ground track

The orbit data is extracted from the following two-line orbital elements,

1 11511U 79078B   16341.49997761  .00000018  00000-0  15097-4 0  9992
2 11511  74.0366 309.4495 0016906 242.7892 117.1539 14.36744040950944
Epoch (UTC): 06 December 2016 11:59:58
Eccentricity: 0.0016906
inclination: 74.0366°
perigee height: 757 km
apogee height: 781 km
right ascension of ascending node: 309.4495°
argument of perigee: 242.7892°
revolutions per day: 14.36744040
mean anomaly at epoch: 117.1539°
orbit number at epoch: 95094

The dashed part of the orbit path shows where the satellite is in the earth's shadow,  

DLR